KD4TJG Weather Reports


Display with metric or nautical units.
time (UTC)temp
F
wind
direction
speed
MPH
gust
MPH
rain 1hr
in
rain 24hr
in
rain mn
in
humidity
%
barometer
mb
20260503215020 66 197 4.0 10.0 0.00 0.00 0.00 28 1015.6
20260503215002 67 193 1.0 8.0 0.00 0.00 0.00 28 1017.7
20260503214542 66 0 1.0 6.0 0.00 0.00 0.00 29 1015.7
20260503214024 66 277 2.0 9.0 0.00 0.00 0.00 27 1015.8
20260503213940 66 203 3.0 8.0 0.00 0.00 0.00 27 1017.8
20260503213520 66 185 2.0 9.0 0.00 0.00 0.00 26 1015.8
20260503213045 67 194 3.0 9.0 0.00 0.00 0.00 28 1015.9
20260503212935 67 200 3.0 8.0 0.00 0.00 0.00 29 1017.9
20260503212523 67 278 3.0 10.0 0.00 0.00 0.00 27 1015.9
20260503212022 66 249 3.0 10.0 0.00 0.00 0.00 27 1015.8
20260503211912 67 215 3.0 8.0 0.00 0.00 0.00 26 1017.9
20260503211540 67 311 2.0 9.0 0.00 0.00 0.00 27 1015.9
20260503211021 66 330 3.0 8.0 0.00 0.00 0.00 27 1015.9
20260503210521 66 234 4.0 8.0 0.00 0.00 0.00 27 1015.8
20260503210039 66 268 1.0 9.0 0.00 0.00 0.00 29 1015.9
20260503205724 66 355 2.0 10.0 0.00 0.00 0.00 27 1018.0
20260503205521 66 326 3.0 9.0 0.00 0.00 0.00 30 1015.9
20260503205021 65 282 2.0 11.0 0.00 0.00 0.00 29 1016.0
20260503204727 66 23 3.0 10.0 0.00 0.00 0.00 28 1018.1
20260503204534 66 342 4.0 11.0 0.00 0.00 0.00 28 1016.1
20260503204020 66 195 2.0 9.0 0.00 0.00 0.00 28 1016.2
20260503203524 66 176 3.0 9.0 0.00 0.00 0.00 28 1016.1
20260503203044 66 244 3.0 9.0 0.00 0.00 0.00 29 1016.2
20260503202554 67 191 3.0 12.0 0.00 0.00 0.00 30 1018.2
20260503202523 66 199 3.0 9.0 0.00 0.00 0.00 30 1016.2
20260503202021 66 255 3.0 9.0 0.00 0.00 0.00 29 1016.3
20260503201558 66 301 3.0 12.0 0.00 0.00 0.00 28 1018.4
20260503201542 65 257 3.0 15.0 0.00 0.00 0.00 27 1016.3
20260503201020 66 251 3.0 15.0 0.00 0.00 0.00 28 1016.6
20260503200553 67 210 3.0 9.0 0.00 0.00 0.00 29 1018.6
20260503200520 66 160 3.0 11.0 0.00 0.00 0.00 31 1016.5
20260503200042 66 332 4.0 11.0 0.00 0.00 0.00 29 1016.5
20260503195616 66 334 3.0 11.0 0.00 0.00 0.00 29 1018.7
20260503195520 66 307 3.0 10.0 0.00 0.00 0.00 29 1016.7
20260503195020 66 1 4.0 12.0 0.00 0.00 0.00 29 1016.8
20260503194636 66 53 3.0 11.0 0.00 0.00 0.00 29 1018.9
20260503194543 65 331 3.0 12.0 0.00 0.00 0.00 30 1016.8
20260503194021 65 196 4.0 12.0 0.00 0.00 0.00 30 1016.8
20260503193520 65 154 3.0 10.0 0.00 0.00 0.00 27 1016.7
20260503193046 66 176 4.0 10.0 0.00 0.00 0.00 28 1017.0
20260503192542 66 222 2.0 8.0 0.00 0.00 0.00 30 1019.0
20260503192521 66 220 2.0 7.0 0.00 0.00 0.00 30 1017.0
20260503192018 65 237 2.0 7.0 0.00 0.00 0.00 28 1017.1
20260503191601 65 0 2.0 11.0 0.00 0.00 0.00 28 1017.0
20260503191533 65 85 3.0 8.0 0.00 0.00 0.00 28 1019.0
20260503191021 65 237 2.0 11.0 0.00 0.00 0.00 29 1017.1
20260503190544 65 239 3.0 8.0 0.00 0.00 0.00 29 1019.2
20260503190520 64 194 3.0 11.0 0.00 0.00 0.00 29 1017.2
20260503190035 64 260 2.0 11.0 0.00 0.00 0.00 29 1017.4
20260503185521 65 297 3.0 9.0 0.00 0.00 0.00 32 1017.4
20260503185518 66 137 1.0 9.0 0.00 0.00 0.00 32 1019.4
20260503185020 64 330 1.0 10.0 0.00 0.00 0.00 30 1017.4
20260503184541 64 210 3.0 10.0 0.00 0.00 0.00 30 1017.6
20260503184022 64 222 3.0 8.0 0.00 0.00 0.00 30 1017.7
20260503183525 63 347 4.0 14.0 0.00 0.00 0.00 30 1017.7
20260503183338 64 307 4.0 11.0 0.00 0.00 0.00 32 1019.7
20260503183041 64 359 6.0 14.0 0.00 0.00 0.00 33 1017.7
20260503182520 64 192 3.0 11.0 0.00 0.00 0.00 31 1017.8
20260503182342 64 287 2.0 8.0 0.00 0.00 0.00 31 1020.0
20260503182021 64 233 1.0 12.0 0.00 0.00 0.00 34 1018.0
20260503181548 63 151 3.0 12.0 0.00 0.00 0.00 30 1018.1
20260503181405 63 212 3.0 9.0 0.00 0.00 0.00 29 1020.2
20260503181021 63 326 3.0 11.0 0.00 0.00 0.00 31 1018.2
20260503180521 62 270 2.0 11.0 0.00 0.00 0.00 33 1018.2
20260503180042 63 235 5.0 14.0 0.00 0.00 0.00 32 1018.3
20260503175521 62 4 5.0 14.0 0.00 0.00 0.00 32 1018.3
20260503175255 63 341 5.0 13.0 0.00 0.00 0.00 30 1020.4
20260503175021 63 268 7.0 14.0 0.00 0.00 0.00 32 1018.4
20260503174544 62 3 3.0 10.0 0.00 0.00 0.00 34 1018.4
20260503174021 62 357 1.0 8.0 0.00 0.00 0.00 32 1018.3
20260503173521 61 233 3.0 9.0 0.00 0.00 0.00 35 1018.4
20260503173124 62 12 2.0 8.0 0.00 0.00 0.00 30 1020.4
20260503173041 62 69 2.0 9.0 0.00 0.00 0.00 30 1018.5
20260503172520 62 237 1.0 10.0 0.00 0.00 0.00 36 1018.4
20260503172104 61 163 3.0 9.0 0.00 0.00 0.00 32 1020.4
20260503172018 60 126 2.0 10.0 0.00 0.00 0.00 32 1018.5
20260503171541 60 225 2.0 9.0 0.00 0.00 0.00 32 1018.6
20260503171020 61 290 2.0 9.0 0.00 0.00 0.00 34 1018.8
20260503170524 61 0 3.0 15.0 0.00 0.00 0.00 36 1018.9
20260503150546 56 281 3.0 8.0 0.00 0.00 0.00 45 1022.0
20260503150521 55 318 3.0 9.0 0.00 0.00 0.00 45 1020.0
20260503140241 52 206 1.0 9.0 0.00 0.00 0.00 53 1022.0
20260503131147 50 253 1.0 8.0 0.00 0.00 0.00 59 1021.9
20260503131017 50 309 1.0 9.0 0.00 0.00 0.00 59 1019.8
20260503130520 50 342 2.0 9.0 0.00 0.00 0.00 61 1019.9
20260503130151 50 316 2.0 8.0 0.00 0.00 0.00 62 1021.9
20260503110522 32 0 0.0 1.0 0.00 0.00 0.00 90 1018.8
20260503090255 34 234 0.0 0.0 0.00 0.00 0.00 89 1019.2
20260503081540 34 0 0.0 0.0 0.00 0.00 0.00 89 1016.7
20260503081121 34 234 0.0 0.0 0.00 0.00 0.00 89 1018.7
20260503081022 34 0 0.0 0.0 0.00 0.00 0.00 89 1016.7
20260503080522 34 0 0.0 1.0 0.00 0.00 0.00 89 1016.6
20260503080120 35 234 0.0 0.0 0.00 0.00 0.00 89 1018.7
20260503072526 35 0 0.0 0.0 0.00 0.00 0.00 89 1016.3
20260503072109 35 234 0.0 0.0 0.00 0.00 0.00 89 1018.1
20260503072022 35 0 0.0 0.0 0.00 0.00 0.00 89 1016.1
20260503071540 35 0 0.0 0.0 0.00 0.00 0.00 89 1016.1
20260503071059 36 234 0.0 0.0 0.00 0.00 0.00 89 1018.2
20260503071022 35 0 0.0 0.0 0.00 0.00 0.00 89 1016.0
20260503070522 35 0 0.0 0.0 0.00 0.00 0.00 89 1016.1
20260503070106 36 234 0.0 0.0 0.00 0.00 0.00 89 1018.1
20260503055119 37 234 0.0 0.0 0.00 0.00 0.00 89 1017.9
20260503055021 36 0 0.0 1.0 0.00 0.00 0.00 89 1015.9
20260503054558 36 0 0.0 1.0 0.00 0.00 0.00 89 1015.9
20260503054111 37 234 0.0 0.0 0.00 0.00 0.00 89 1018.0
20260503054019 36 0 0.0 0.0 0.00 0.00 0.00 89 1015.9
20260503053520 36 0 0.0 1.0 0.00 0.00 0.00 88 1015.9
20260503053126 37 234 0.0 0.0 0.00 0.00 0.00 89 1017.9
20260503053040 37 0 0.0 1.0 0.00 0.00 0.00 89 1015.9
20260503052522 37 234 0.0 1.0 0.00 0.00 0.00 89 1015.8
20260503052133 38 234 0.0 0.0 0.00 0.00 0.00 88 1017.9
20260503052022 37 0 0.0 1.0 0.00 0.00 0.00 88 1015.9
20260503051535 37 0 0.0 1.0 0.00 0.00 0.00 88 1015.9
20260503051128 38 234 0.0 0.0 0.00 0.00 0.00 88 1017.9
20260503051022 37 0 0.0 1.0 0.00 0.00 0.00 88 1015.8
20260503050522 37 0 0.0 1.0 0.00 0.00 0.00 88 1015.8
20260503050130 38 234 0.0 0.0 0.00 0.00 0.00 88 1017.8
20260503050036 37 0 0.0 1.0 0.00 0.00 0.00 88 1015.8
20260503045520 37 234 0.0 1.0 0.00 0.00 0.00 88 1015.6
20260503045058 38 234 0.0 0.0 0.00 0.00 0.00 88 1017.7
20260503045019 38 0 0.0 1.0 0.00 0.00 0.00 88 1015.5
20260503044545 38 0 0.0 1.0 0.00 0.00 0.00 88 1015.6
20260503044021 38 0 0.0 1.0 0.00 0.00 0.00 88 1015.6
20260503043521 38 0 0.0 1.0 0.00 0.00 0.00 88 1015.4
20260503043051 38 0 0.0 0.0 0.00 0.00 0.00 88 1015.5
20260503042930 39 279 0.0 0.0 0.00 0.00 0.00 88 1017.5
20260503042522 38 0 0.0 0.0 0.00 0.00 0.00 88 1015.5
20260503042022 39 0 0.0 0.0 0.00 0.00 0.00 88 1015.4
20260503041542 39 0 0.0 1.0 0.00 0.00 0.00 87 1015.5
20260503041022 39 0 0.0 1.0 0.00 0.00 0.00 88 1015.3
20260503040523 39 0 0.0 0.0 0.00 0.00 0.00 87 1015.3
20260503040039 39 0 0.0 1.0 0.00 0.00 0.00 87 1015.2
20260503035700 40 279 0.0 0.0 0.00 0.00 0.00 87 1017.2
20260503035524 40 0 0.0 1.0 0.00 0.00 0.00 87 1015.2
20260503035022 40 0 0.0 1.0 0.00 0.00 0.00 87 1015.1
20260503034705 40 279 0.0 0.0 0.00 0.00 0.00 87 1017.2
20260503034547 40 0 0.0 1.0 0.00 0.00 0.00 87 1015.1
20260503034021 40 0 0.0 1.0 0.00 0.00 0.00 86 1015.1
20260503033630 41 279 0.0 0.0 0.00 0.00 0.00 87 1017.1
20260503033521 41 0 0.0 0.0 0.00 0.00 0.00 86 1015.1
20260503033034 41 0 0.0 1.0 0.00 0.00 0.00 86 1015.2
20260503032522 41 0 0.0 2.0 0.00 0.00 0.00 86 1015.1
20260503032023 42 0 0.0 2.0 0.00 0.00 0.00 86 1015.0
20260503031541 42 282 0.0 0.0 0.00 0.00 0.00 85 1014.9
20260503031022 42 0 0.0 0.0 0.00 0.00 0.00 85 1014.8
20260503030522 42 0 0.0 0.0 0.00 0.00 0.00 85 1014.7
20260503030455 43 0 0.0 0.0 0.00 0.00 0.00 85 1016.7
20260503030041 42 0 0.0 0.0 0.00 0.00 0.00 85 1014.7
20260503025522 42 0 0.0 0.0 0.00 0.00 0.00 85 1014.7
20260503025513 43 0 0.0 0.0 0.00 0.00 0.00 85 1016.7
20260503025018 43 0 0.0 0.0 0.00 0.00 0.00 84 1014.7
20260503024541 43 0 0.0 0.0 0.00 0.00 0.00 84 1014.7
20260503024510 43 0 0.0 0.0 0.00 0.00 0.00 84 1016.8
20260503024022 43 0 0.0 0.0 0.00 0.00 0.00 84 1014.7
20260503023524 44 0 0.0 0.0 0.00 0.00 0.00 83 1014.8
20260503023046 44 0 0.0 0.0 0.00 0.00 0.00 83 1014.7
20260503022522 44 0 0.0 0.0 0.00 0.00 0.00 82 1014.7
20260503022336 45 0 0.0 0.0 0.00 0.00 0.00 82 1016.6
20260503022023 44 0 0.0 0.0 0.00 0.00 0.00 82 1014.5
20260503021535 45 0 0.0 0.0 0.00 0.00 0.00 82 1014.5
20260503021346 45 0 0.0 0.0 0.00 0.00 0.00 82 1016.7
20260503021019 45 0 0.0 0.0 0.00 0.00 0.00 82 1014.6
20260503020522 45 0 0.0 0.0 0.00 0.00 0.00 81 1014.6
20260503020408 46 0 0.0 0.0 0.00 0.00 0.00 81 1016.6
20260503020034 46 0 0.0 0.0 0.00 0.00 0.00 81 1014.6
20260503015522 46 0 0.0 0.0 0.00 0.00 0.00 80 1014.5
20260503015409 47 0 0.0 0.0 0.00 0.00 0.00 80 1016.5
20260503015021 47 0 0.0 1.0 0.00 0.00 0.00 80 1014.4
20260503014549 47 0 0.0 2.0 0.00 0.00 0.00 79 1014.3
20260503014336 48 0 0.0 0.0 0.00 0.00 0.00 79 1016.2
20260503014022 47 0 0.0 3.0 0.00 0.00 0.00 79 1014.3
20260503013522 48 273 0.0 3.0 0.00 0.00 0.00 78 1014.1
20260503013335 48 273 0.0 1.0 0.00 0.00 0.00 78 1016.2
20260503013045 48 0 0.0 1.0 0.00 0.00 0.00 77 1014.1
20260503012521 48 0 0.0 1.0 0.00 0.00 0.00 77 1014.0
20260503012335 49 281 0.0 0.0 0.00 0.00 0.00 76 1015.9
20260503012022 49 0 0.0 1.0 0.00 0.00 0.00 75 1013.8
20260503011542 49 0 0.0 2.0 0.00 0.00 0.00 74 1013.7
20260503011310 50 281 0.0 1.0 0.00 0.00 0.00 74 1015.7
20260503011021 50 281 0.0 2.0 0.00 0.00 0.00 73 1013.6
20260503010525 50 0 0.0 2.0 0.00 0.00 0.00 74 1013.5
20260503010324 51 258 0.0 1.0 0.00 0.00 0.00 73 1015.5
20260503010046 51 258 1.0 2.0 0.00 0.00 0.00 73 1013.5
20260503005522 51 0 0.0 2.0 0.00 0.00 0.00 73 1013.4
20260503005337 52 274 0.0 1.0 0.00 0.00 0.00 72 1015.4
20260503005024 52 0 0.0 1.0 0.00 0.00 0.00 69 1013.3
20260503004600 52 0 0.0 1.0 0.00 0.00 0.00 69 1013.1
20260503004338 53 274 0.0 0.0 0.00 0.00 0.00 70 1015.2
20260503004023 53 274 0.0 2.0 0.00 0.00 0.00 70 1013.2
20260503003522 53 0 0.0 2.0 0.00 0.00 0.00 71 1013.1
20260503003044 53 0 0.0 2.0 0.00 0.00 0.00 66 1013.0
20260503002522 54 339 0.0 2.0 0.00 0.00 0.00 69 1013.0
20260503002220 54 273 0.0 0.0 0.00 0.00 0.00 69 1014.8
20260503002022 54 273 0.0 1.0 0.00 0.00 0.00 69 1012.9
20260503001546 54 0 0.0 1.0 0.00 0.00 0.00 69 1012.9
20260503001150 55 273 0.0 0.0 0.00 0.00 0.00 68 1014.8
20260503001022 54 273 0.0 1.0 0.00 0.00 0.00 68 1012.8
20260503000523 54 0 0.0 0.0 0.00 0.00 0.00 68 1012.8
20260503000204 55 273 0.0 0.0 0.00 0.00 0.00 68 1014.7
20260503000044 55 0 0.0 1.0 0.00 0.00 0.00 69 1012.8
20260502235523 55 0 0.0 2.0 0.00 0.00 0.00 68 1012.7
20260502235209 55 273 0.0 0.0 0.00 0.00 0.00 68 1014.6
20260502235021 55 273 0.0 2.0 0.00 0.00 0.00 68 1012.6
20260502234550 55 273 0.0 3.0 0.00 0.00 0.00 68 1012.5
20260502234226 56 305 0.0 0.0 0.00 0.00 0.00 67 1014.5
20260502234021 55 0 0.0 3.0 0.00 0.00 0.00 67 1012.4
20260502233521 55 219 1.0 3.0 0.00 0.00 0.00 67 1012.3
20260502233224 56 243 0.0 1.0 0.00 0.00 0.00 66 1014.3
20260502233042 56 0 0.0 2.0 0.00 0.00 0.00 66 1012.2
20260502232524 56 75 0.0 1.0 0.00 0.00 0.00 63 1012.1
20260502232222 56 52 0.0 0.0 0.00 0.00 0.00 63 1014.2
20260502232021 56 0 0.0 1.0 0.00 0.00 0.00 64 1012.0
20260502231539 56 0 0.0 1.0 0.00 0.00 0.00 63 1012.0
20260502231227 57 49 0.0 0.0 0.00 0.00 0.00 62 1014.0
20260502231022 57 0 0.0 1.0 0.00 0.00 0.00 60 1011.9
20260502230522 57 0 0.0 1.0 0.00 0.00 0.00 57 1011.8
20260502230244 58 49 0.0 0.0 0.00 0.00 0.00 58 1013.8
20260502230046 57 0 0.0 1.0 0.00 0.00 0.00 58 1011.8
20260502225521 58 0 0.0 1.0 0.00 0.00 0.00 57 1011.8
20260502225214 58 49 0.0 0.0 0.00 0.00 0.00 56 1013.8
20260502225021 58 0 0.0 2.0 0.00 0.00 0.00 58 1011.8
20260502224545 58 0 0.0 2.0 0.00 0.00 0.00 54 1011.7
20260502224143 59 49 0.0 1.0 0.00 0.00 0.00 51 1013.7
20260502224022 59 41 0.0 2.0 0.00 0.00 0.00 51 1011.7
20260502223522 59 0 0.0 2.0 0.00 0.00 0.00 49 1011.7
20260502223122 60 149 0.0 3.0 0.00 0.00 0.00 48 1013.6
20260502223045 59 149 0.0 2.0 0.00 0.00 0.00 47 1011.6
20260502222523 59 149 0.0 5.0 0.00 0.00 0.00 44 1011.4
20260502222145 60 135 1.0 3.0 0.00 0.00 0.00 45 1013.4
20260502222021 60 162 1.0 5.0 0.00 0.00 0.00 45 1011.4
20260502221540 60 147 1.0 5.0 0.00 0.00 0.00 46 1011.2
20260502221155 61 131 1.0 4.0 0.00 0.00 0.00 44 1013.3
20260502221021 61 220 1.0 5.0 0.00 0.00 0.00 43 1011.2
20260502220522 61 151 3.0 5.0 0.00 0.00 0.00 44 1011.2
20260502220206 61 189 1.0 5.0 0.00 0.00 0.00 44 1013.2
20260502220042 61 0 0.0 6.0 0.00 0.00 0.00 45 1011.1
20260502215523 61 51 1.0 7.0 0.00 0.00 0.00 43 1011.1
20260502215204 61 154 2.0 5.0 0.00 0.00 0.00 44 1013.1